Back to catalog

STARLINK-35348

AliveCommunicationsVLEO
NORAD 65904·PAYLOAD·🇺🇸 United States

Launched Oct 7, 2025 from Cape Canaveral Space Force Station

Loading…

Next Passes (next 24 hours)

TLE

FreshSource: CelesTrak SupGP

Epoch: Sep 14, 2026, 21:24 UTC

1 65904C 25224Y   26257.89215278  .00025674  00000+0  75833-3 0  2572
2 65904  53.1577 208.0432 0001309  89.2730 323.1241 15.34386482    16

Track STARLINK-35348 in real time with AllMySat

Download on the App Store